Private Wetterstation Sandau
Wetterdaten: Dienstag, 03.07.2012
Datum Zeit Temp. A. Feuchte A. Luftdruck Regen Wind Richtung Richtung Taupunkt Windchill
03.07.2012 00:01 16,1 C 82 % 1020,5 hPa 0,0 l/m 0,0 km/h (0 Bft) NO 45 13,0 C 16,1 C
03.07.2012 00:06 16,1 C 82 % 1020,8 hPa 0,0 l/m 0,0 km/h (0 Bft) NO 45 13,0 C 16,1 C
03.07.2012 00:11 16,2 C 82 % 1020,7 hPa 0,0 l/m 0,0 km/h (0 Bft) NO 45 13,1 C 16,2 C
03.07.2012 00:16 16,3 C 82 % 1020,5 hPa 0,0 l/m 0,0 km/h (0 Bft) NO 45 13,2 C 16,3 C
03.07.2012 00:21 16,4 C 82 % 1020,5 hPa 0,0 l/m 0,0 km/h (0 Bft) NO 45 13,3 C 16,4 C
03.07.2012 00:26 16,3 C 81 % 1020,4 hPa 0,0 l/m 0,0 km/h (0 Bft) NO 45 13,0 C 16,3 C
03.07.2012 00:31 16,2 C 81 % 1020,4 hPa 0,0 l/m 0,0 km/h (0 Bft) NO 45 12,9 C 16,2 C
03.07.2012 00:36 16,1 C 82 % 1020,3 hPa 0,0 l/m 2,2 km/h (1 Bft) N-NO 22 13,0 C 16,1 C
03.07.2012 00:41 16,0 C 82 % 1020,2 hPa 0,0 l/m 0,0 km/h (0 Bft) N 360 12,9 C 16,0 C
03.07.2012 00:46 15,9 C 82 % 1020,0 hPa 0,0 l/m 3,6 km/h (1 Bft) N-NO 22 12,8 C 15,9 C
03.07.2012 00:51 15,8 C 82 % 1020,0 hPa 0,0 l/m 0,0 km/h (0 Bft) N 360 12,7 C 15,8 C
03.07.2012 00:56 15,8 C 83 % 1020,0 hPa 0,0 l/m 4,7 km/h (1 Bft) N 360 12,9 C 15,8 C
03.07.2012 01:01 15,6 C 83 % 1020,0 hPa 0,0 l/m 2,9 km/h (1 Bft) N-NO 22 12,7 C 15,6 C
03.07.2012 01:06 15,6 C 84 % 1020,0 hPa 0,0 l/m 2,9 km/h (1 Bft) N-NO 22 12,9 C 15,6 C
03.07.2012 01:11 15,6 C 84 % 1019,9 hPa 0,0 l/m 0,0 km/h (0 Bft) N-NO 22 12,9 C 15,6 C
03.07.2012 01:16 15,6 C 84 % 1019,9 hPa 0,0 l/m 0,0 km/h (0 Bft) N-NW 337 12,9 C 15,6 C
03.07.2012 01:21 15,6 C 84 % 1019,9 hPa 0,0 l/m 0,0 km/h (0 Bft) N 360 12,9 C 15,6 C
03.07.2012 01:26 15,7 C 84 % 1019,9 hPa 0,0 l/m 0,0 km/h (0 Bft) N 360 13,0 C 15,7 C
03.07.2012 01:31 15,7 C 84 % 1020,0 hPa 0,0 l/m 3,6 km/h (1 Bft) N-NO 22 13,0 C 15,7 C
03.07.2012 01:36 15,6 C 84 % 1019,9 hPa 0,0 l/m 0,0 km/h (0 Bft) N 360 12,9 C 15,6 C
03.07.2012 01:41 15,7 C 84 % 1019,8 hPa 0,0 l/m 2,5 km/h (1 Bft) N-NO 22 13,0 C 15,7 C
03.07.2012 01:46 15,6 C 84 % 1019,7 hPa 0,0 l/m 1,4 km/h (1 Bft) N 360 12,9 C 15,6 C
03.07.2012 01:51 15,6 C 84 % 1019,4 hPa 0,0 l/m 4,7 km/h (1 Bft) N 360 12,9 C 15,6 C
03.07.2012 01:56 15,6 C 84 % 1019,5 hPa 0,0 l/m 3,6 km/h (1 Bft) N-NO 22 12,9 C 15,6 C
03.07.2012 02:01 15,6 C 84 % 1019,3 hPa 0,0 l/m 2,5 km/h (1 Bft) NO 45 12,9 C 15,6 C
03.07.2012 02:06 15,5 C 84 % 1019,3 hPa 0,0 l/m 6,5 km/h (2 Bft) N 360 12,8 C 15,5 C
03.07.2012 02:11 15,5 C 84 % 1019,2 hPa 0,0 l/m 0,0 km/h (0 Bft) NO 45 12,8 C 15,5 C
03.07.2012 02:16 15,6 C 84 % 1019,2 hPa 0,0 l/m 4,0 km/h (1 Bft) O-NO 67 12,9 C 15,6 C
03.07.2012 02:21 15,6 C 84 % 1019,2 hPa 0,0 l/m 2,5 km/h (1 Bft) N-NO 22 12,9 C 15,6 C
03.07.2012 02:26 15,5 C 84 % 1019,2 hPa 0,0 l/m 0,0 km/h (0 Bft) N-NO 22 12,8 C 15,5 C
03.07.2012 02:31 15,5 C 84 % 1019,1 hPa 0,0 l/m 0,0 km/h (0 Bft) N 360 12,8 C 15,5 C
03.07.2012 02:36 15,5 C 84 % 1019,3 hPa 0,0 l/m 2,2 km/h (1 Bft) N 360 12,8 C 15,5 C
03.07.2012 02:41 15,5 C 84 % 1019,2 hPa 0,0 l/m 4,0 km/h (1 Bft) N-NO 22 12,8 C 15,5 C
03.07.2012 02:46 15,5 C 84 % 1019,1 hPa 0,0 l/m 2,2 km/h (1 Bft) N 360 12,8 C 15,5 C
03.07.2012 02:51 15,5 C 84 % 1019,1 hPa 0,0 l/m 3,2 km/h (1 Bft) N-NW 337 12,8 C 15,5 C
03.07.2012 02:56 15,6 C 84 % 1019,1 hPa 0,0 l/m 2,5 km/h (1 Bft) N-NO 22 12,9 C 15,6 C
03.07.2012 03:01 15,6 C 84 % 1019,0 hPa 0,0 l/m 2,9 km/h (1 Bft) N 360 12,9 C 15,6 C
03.07.2012 03:06 15,6 C 84 % 1018,9 hPa 0,0 l/m 3,6 km/h (1 Bft) O-NO 67 12,9 C 15,6 C
03.07.2012 03:11 15,5 C 84 % 1019,1 hPa 0,0 l/m 4,0 km/h (1 Bft) N-NO 22 12,8 C 15,5 C
03.07.2012 03:16 15,5 C 84 % 1019,2 hPa 0,0 l/m 4,3 km/h (1 Bft) N 360 12,8 C 15,5 C
03.07.2012 03:21 15,6 C 84 % 1019,3 hPa 0,0 l/m 0,0 km/h (0 Bft) N 360 12,9 C 15,6 C
03.07.2012 03:26 15,6 C 83 % 1019,2 hPa 0,0 l/m 0,0 km/h (0 Bft) NO 45 12,7 C 15,6 C
03.07.2012 03:31 15,6 C 83 % 1019,2 hPa 0,0 l/m 0,0 km/h (0 Bft) N 360 12,7 C 15,6 C
03.07.2012 03:36 15,7 C 83 % 1019,3 hPa 0,0 l/m 0,0 km/h (0 Bft) N 360 12,8 C 15,7 C
03.07.2012 03:41 15,8 C 83 % 1019,3 hPa 0,0 l/m 0,0 km/h (0 Bft) N 360 12,9 C 15,8 C
03.07.2012 03:46 15,9 C 83 % 1019,4 hPa 0,0 l/m 0,0 km/h (0 Bft) N 360 13,0 C 15,9 C
03.07.2012 03:51 15,9 C 83 % 1019,3 hPa 0,0 l/m 1,1 km/h (1 Bft) N 360 13,0 C 15,9 C
03.07.2012 03:56 15,9 C 82 % 1019,3 hPa 0,0 l/m 3,2 km/h (1 Bft) NO 45 12,8 C 15,9 C
03.07.2012 04:01 15,9 C 82 % 1019,4 hPa 0,0 l/m 0,0 km/h (0 Bft) NO 45 12,8 C 15,9 C
03.07.2012 04:06 15,9 C 82 % 1019,2 hPa 0,0 l/m 2,9 km/h (1 Bft) NO 45 12,8 C 15,9 C
03.07.2012 04:11 15,9 C 82 % 1019,3 hPa 0,0 l/m 0,0 km/h (0 Bft) NO 45 12,8 C 15,9 C
03.07.2012 04:16 15,9 C 82 % 1019,3 hPa 0,0 l/m 4,0 km/h (1 Bft) N-NO 22 12,8 C 15,9 C
03.07.2012 04:21 15,8 C 82 % 1019,0 hPa 0,0 l/m 2,5 km/h (1 Bft) NO 45 12,7 C 15,8 C
03.07.2012 04:26 15,8 C 82 % 1018,8 hPa 0,0 l/m 8,3 km/h (2 Bft) O-NO 67 12,7 C 15,8 C
03.07.2012 04:31 15,7 C 82 % 1018,8 hPa 0,0 l/m 1,4 km/h (1 Bft) O-NO 67 12,6 C 15,7 C
03.07.2012 04:36 15,7 C 82 % 1018,9 hPa 0,0 l/m 3,2 km/h (1 Bft) NO 45 12,6 C 15,7 C
03.07.2012 04:41 15,7 C 82 % 1019,0 hPa 0,0 l/m 1,1 km/h (1 Bft) N-NO 22 12,6 C 15,7 C
03.07.2012 04:46 15,7 C 82 % 1018,9 hPa 0,0 l/m 1,1 km/h (1 Bft) O-NO 67 12,6 C 15,7 C
03.07.2012 04:51 15,7 C 82 % 1018,8 hPa 0,0 l/m 0,0 km/h (0 Bft) N 360 12,6 C 15,7 C
03.07.2012 04:56 15,7 C 82 % 1019,0 hPa 0,0 l/m 0,0 km/h (0 Bft) N-NO 22 12,6 C 15,7 C
03.07.2012 05:01 15,8 C 83 % 1019,1 hPa 0,0 l/m 0,0 km/h (0 Bft) N-NW 337 12,9 C 15,8 C
03.07.2012 05:06 15,8 C 83 % 1019,2 hPa 0,0 l/m 0,0 km/h (0 Bft) N-NW 337 12,9 C 15,8 C
03.07.2012 05:11 15,8 C 83 % 1019,3 hPa 0,0 l/m 0,0 km/h (0 Bft) N-NW 337 12,9 C 15,8 C
03.07.2012 05:16 15,9 C 82 % 1019,5 hPa 0,0 l/m 1,1 km/h (1 Bft) N-NW 337 12,8 C 15,9 C
03.07.2012 05:21 15,9 C 82 % 1019,3 hPa 0,0 l/m 1,1 km/h (1 Bft) O-NO 67 12,8 C 15,9 C
03.07.2012 05:26 15,9 C 82 % 1019,4 hPa 0,0 l/m 4,7 km/h (1 Bft) O-NO 67 12,8 C 15,9 C
03.07.2012 05:31 15,9 C 82 % 1019,3 hPa 0,0 l/m 8,3 km/h (2 Bft) O-NO 67 12,8 C 15,9 C
03.07.2012 05:36 15,8 C 81 % 1019,1 hPa 0,0 l/m 10,1 km/h (2 Bft) O-NO 67 12,5 C 15,8 C
03.07.2012 05:41 15,8 C 81 % 1019,2 hPa 0,0 l/m 9,7 km/h (2 Bft) O-NO 67 12,5 C 15,8 C
03.07.2012 05:46 15,8 C 81 % 1019,2 hPa 0,0 l/m 2,5 km/h (1 Bft) NO 45 12,5 C 15,8 C
03.07.2012 05:51 15,8 C 81 % 1019,2 hPa 0,0 l/m 5,4 km/h (1 Bft) N-NO 22 12,5 C 15,8 C
03.07.2012 05:56 15,8 C 81 % 1019,2 hPa 0,0 l/m 7,2 km/h (2 Bft) O-NO 67 12,5 C 15,8 C
03.07.2012 06:01 15,8 C 80 % 1019,1 hPa 0,0 l/m 5,8 km/h (2 Bft) O-NO 67 12,4 C 15,8 C
03.07.2012 06:06 15,8 C 80 % 1019,3 hPa 0,0 l/m 8,3 km/h (2 Bft) O-NO 67 12,4 C 15,8 C
03.07.2012 06:11 15,8 C 80 % 1019,4 hPa 0,0 l/m 2,5 km/h (1 Bft) NO 45 12,4 C 15,8 C
03.07.2012 06:16 15,8 C 80 % 1019,3 hPa 0,0 l/m 0,0 km/h (0 Bft) NO 45 12,4 C 15,8 C
03.07.2012 06:21 15,8 C 80 % 1019,3 hPa 0,0 l/m 4,3 km/h (1 Bft) NO 45 12,4 C 15,8 C
03.07.2012 06:26 15,8 C 80 % 1019,3 hPa 0,0 l/m 0,0 km/h (0 Bft) O-NO 67 12,4 C 15,8 C
03.07.2012 06:31 15,9 C 80 % 1019,3 hPa 0,0 l/m 0,0 km/h (0 Bft) N 360 12,5 C 15,9 C
03.07.2012 06:36 15,9 C 80 % 1019,4 hPa 0,0 l/m 3,2 km/h (1 Bft) O-NO 67 12,5 C 15,9 C
03.07.2012 06:41 15,9 C 80 % 1019,3 hPa 0,0 l/m 1,4 km/h (1 Bft) O-NO 67 12,5 C 15,9 C
03.07.2012 06:46 15,9 C 79 % 1019,0 hPa 0,0 l/m 4,0 km/h (1 Bft) NO 45 12,3 C 15,9 C
03.07.2012 06:51 15,9 C 79 % 1019,0 hPa 0,0 l/m 6,5 km/h (2 Bft) O-NO 67 12,3 C 15,9 C
03.07.2012 06:56 15,9 C 79 % 1019,0 hPa 0,0 l/m 5,0 km/h (1 Bft) NO 45 12,3 C 15,9 C
03.07.2012 07:01 15,9 C 78 % 1019,1 hPa 0,0 l/m 7,2 km/h (2 Bft) O-NO 67 12,1 C 15,9 C
03.07.2012 07:06 15,9 C 78 % 1019,0 hPa 0,0 l/m 3,2 km/h (1 Bft) O 90 12,1 C 15,9 C
03.07.2012 07:11 16,1 C 78 % 1019,0 hPa 0,0 l/m 2,5 km/h (1 Bft) O 90 12,3 C 16,1 C
03.07.2012 07:16 16,1 C 79 % 1019,2 hPa 0,0 l/m 0,0 km/h (0 Bft) W 270 12,5 C 16,1 C
03.07.2012 07:21 16,3 C 78 % 1019,1 hPa 0,0 l/m 0,0 km/h (0 Bft) N 360 12,5 C 16,3 C
03.07.2012 07:26 16,3 C 78 % 1019,1 hPa 0,0 l/m 6,5 km/h (2 Bft) N 360 12,5 C 16,3 C
03.07.2012 07:31 16,3 C 77 % 1019,0 hPa 0,0 l/m 4,0 km/h (1 Bft) N-NO 22 12,3 C 16,3 C
03.07.2012 07:36 16,3 C 77 % 1019,1 hPa 0,0 l/m 2,5 km/h (1 Bft) O-NO 67 12,3 C 16,3 C
03.07.2012 07:41 16,4 C 77 % 1019,2 hPa 0,0 l/m 0,0 km/h (0 Bft) SO 135 12,4 C 16,4 C
03.07.2012 07:46 16,4 C 77 % 1019,4 hPa 0,0 l/m 0,0 km/h (0 Bft) W 270 12,4 C 16,4 C
03.07.2012 07:51 16,6 C 77 % 1019,5 hPa 0,0 l/m 0,0 km/h (0 Bft) W-SW 247 12,5 C 16,6 C
03.07.2012 07:56 16,7 C 77 % 1019,5 hPa 0,0 l/m 0,0 km/h (0 Bft) W-SW 247 12,6 C 16,7 C
03.07.2012 08:01 16,8 C 77 % 1019,3 hPa 0,0 l/m 0,0 km/h (0 Bft) W 270 12,7 C 16,8 C
03.07.2012 08:06 16,9 C 76 % 1019,4 hPa 0,0 l/m 0,0 km/h (0 Bft) W 270 12,6 C 16,9 C
03.07.2012 08:11 16,9 C 76 % 1019,4 hPa 0,0 l/m 0,0 km/h (0 Bft) NW 315 12,6 C 16,9 C
03.07.2012 08:16 16,9 C 75 % 1019,3 hPa 0,0 l/m 0,0 km/h (0 Bft) N 360 12,4 C 16,9 C
03.07.2012 08:21 16,9 C 75 % 1019,3 hPa 0,0 l/m 2,9 km/h (1 Bft) N 360 12,4 C 16,9 C
03.07.2012 08:26 16,9 C 76 % 1019,5 hPa 0,0 l/m 2,2 km/h (1 Bft) N-NO 22 12,6 C 16,9 C
03.07.2012 08:31 16,9 C 75 % 1019,5 hPa 0,0 l/m 1,4 km/h (1 Bft) N-NO 22 12,4 C 16,9 C
03.07.2012 08:36 16,9 C 76 % 1019,5 hPa 0,0 l/m 0,0 km/h (0 Bft) O-NO 67 12,6 C 16,9 C
03.07.2012 08:41 16,9 C 76 % 1019,5 hPa 0,0 l/m 1,4 km/h (1 Bft) O-NO 67 12,6 C 16,9 C
03.07.2012 08:46 16,9 C 76 % 1019,6 hPa 0,0 l/m 0,0 km/h (0 Bft) N-NO 22 12,6 C 16,9 C
03.07.2012 08:51 16,9 C 76 % 1019,6 hPa 0,0 l/m 1,8 km/h (1 Bft) N-NO 22 12,6 C 16,9 C
03.07.2012 08:56 16,9 C 76 % 1019,4 hPa 0,0 l/m 1,8 km/h (1 Bft) N-NO 22 12,6 C 16,9 C
03.07.2012 09:01 16,8 C 76 % 1019,4 hPa 0,0 l/m 0,0 km/h (0 Bft) N 360 12,5 C 16,8 C
03.07.2012 09:06 16,9 C 77 % 1019,3 hPa 0,0 l/m 0,0 km/h (0 Bft) N 360 12,8 C 16,9 C
03.07.2012 09:11 16,8 C 77 % 1019,3 hPa 0,0 l/m 2,5 km/h (1 Bft) N-NO 22 12,7 C 16,8 C
03.07.2012 09:16 16,8 C 77 % 1019,3 hPa 0,0 l/m 0,0 km/h (0 Bft) N 360 12,7 C 16,8 C
03.07.2012 09:21 16,8 C 78 % 1019,3 hPa 0,0 l/m 2,2 km/h (1 Bft) N-NO 22 12,9 C 16,8 C
03.07.2012 09:26 16,8 C 78 % 1019,5 hPa 0,0 l/m 0,0 km/h (0 Bft) N-NO 22 12,9 C 16,8 C
03.07.2012 09:31 16,9 C 78 % 1019,5 hPa 0,0 l/m 2,5 km/h (1 Bft) N-NW 337 13,0 C 16,9 C
03.07.2012 09:36 17,0 C 78 % 1019,6 hPa 0,0 l/m 1,4 km/h (1 Bft) N-NO 22 13,1 C 17,0 C
03.07.2012 09:41 17,0 C 77 % 1019,6 hPa 0,0 l/m 0,0 km/h (0 Bft) O 90 12,9 C 17,0 C
03.07.2012 09:46 17,0 C 77 % 1019,6 hPa 0,0 l/m 1,4 km/h (1 Bft) N-NO 22 12,9 C 17,0 C
03.07.2012 09:51 17,1 C 77 % 1019,6 hPa 0,0 l/m 1,8 km/h (1 Bft) O-NO 67 13,0 C 17,1 C
03.07.2012 09:56 17,3 C 76 % 1019,7 hPa 0,0 l/m 4,7 km/h (1 Bft) NO 45 13,0 C 17,3 C
03.07.2012 10:01 17,3 C 76 % 1019,6 hPa 0,0 l/m 5,8 km/h (2 Bft) NO 45 13,0 C 17,3 C
03.07.2012 10:06 17,5 C 76 % 1019,6 hPa 0,0 l/m 3,6 km/h (1 Bft) NO 45 13,2 C 17,5 C
03.07.2012 10:11 17,8 C 75 % 1019,6 hPa 0,0 l/m 5,0 km/h (1 Bft) N 360 13,3 C 17,8 C
03.07.2012 10:16 17,9 C 74 % 1019,6 hPa 0,0 l/m 6,1 km/h (2 Bft) N-NO 22 13,2 C 17,9 C
03.07.2012 10:21 17,9 C 74 % 1019,6 hPa 0,0 l/m 5,4 km/h (1 Bft) O 90 13,2 C 17,9 C
03.07.2012 10:26 18,1 C 74 % 1019,7 hPa 0,0 l/m 0,0 km/h (0 Bft) NO 45 13,4 C 18,1 C
03.07.2012 10:31 18,4 C 74 % 1019,7 hPa 0,0 l/m 0,0 km/h (0 Bft) NW 315 13,7 C 18,4 C
03.07.2012 10:36 18,6 C 74 % 1019,7 hPa 0,0 l/m 2,2 km/h (1 Bft) N-NO 22 13,9 C 18,6 C
03.07.2012 10:41 18,8 C 73 % 1019,6 hPa 0,0 l/m 0,0 km/h (0 Bft) NW 315 13,9 C 18,8 C
03.07.2012 10:46 19,0 C 72 % 1019,7 hPa 0,0 l/m 0,0 km/h (0 Bft) W-NW 292 13,8 C 19,0 C
03.07.2012 10:51 19,3 C 72 % 1019,8 hPa 0,0 l/m 0,0 km/h (0 Bft) N-NO 22 14,1 C 19,3 C
03.07.2012 10:56 19,5 C 72 % 1019,7 hPa 0,0 l/m 2,5 km/h (1 Bft) NW 315 14,3 C 19,5 C
03.07.2012 11:01 19,8 C 71 % 1019,7 hPa 0,0 l/m 2,2 km/h (1 Bft) N-NW 337 14,4 C 19,8 C
03.07.2012 11:06 19,9 C 70 % 1019,6 hPa 0,0 l/m 2,9 km/h (1 Bft) W-NW 292 14,3 C 19,9 C
03.07.2012 11:11 20,2 C 70 % 1019,6 hPa 0,0 l/m 4,3 km/h (1 Bft) N 360 14,5 C 20,2 C
03.07.2012 11:16 20,2 C 69 % 1019,6 hPa 0,0 l/m 4,7 km/h (1 Bft) N-NO 22 14,3 C 20,2 C
03.07.2012 11:21 19,9 C 69 % 1019,6 hPa 0,0 l/m 3,2 km/h (1 Bft) N-NO 22 14,0 C 19,9 C
03.07.2012 11:26 19,9 C 69 % 1019,6 hPa 0,0 l/m 3,2 km/h (1 Bft) NW 315 14,0 C 19,9 C
03.07.2012 11:31 20,4 C 69 % 1019,6 hPa 0,0 l/m 6,8 km/h (2 Bft) N-NO 22 14,5 C 20,4 C
03.07.2012 11:36 20,4 C 69 % 1019,6 hPa 0,0 l/m 6,8 km/h (2 Bft) NW 315 14,5 C 20,4 C
03.07.2012 11:41 20,6 C 69 % 1019,5 hPa 0,0 l/m 3,6 km/h (1 Bft) N-NO 22 14,7 C 20,6 C
03.07.2012 11:46 20,5 C 68 % 1019,5 hPa 0,0 l/m 2,5 km/h (1 Bft) N-NW 337 14,4 C 20,5 C
03.07.2012 11:51 20,8 C 70 % 1019,4 hPa 0,0 l/m 1,8 km/h (1 Bft) W-NW 292 15,1 C 20,8 C
03.07.2012 11:56 21,3 C 69 % 1019,5 hPa 0,0 l/m 5,0 km/h (1 Bft) N 360 15,4 C 21,3 C
03.07.2012 12:01 21,4 C 68 % 1019,4 hPa 0,0 l/m 5,8 km/h (2 Bft) O-NO 67 15,2 C 21,4 C
03.07.2012 12:06 21,5 C 68 % 1019,4 hPa 0,0 l/m 2,2 km/h (1 Bft) NW 315 15,3 C 21,5 C
03.07.2012 12:11 21,8 C 67 % 1019,4 hPa 0,0 l/m 4,0 km/h (1 Bft) N-NO 22 15,4 C 21,8 C
03.07.2012 12:16 21,8 C 68 % 1019,3 hPa 0,0 l/m 8,6 km/h (2 Bft) W-NW 292 15,6 C 21,8 C
03.07.2012 12:21 22,1 C 67 % 1019,3 hPa 0,0 l/m 3,6 km/h (1 Bft) W 270 15,7 C 22,1 C
03.07.2012 12:26 22,1 C 67 % 1019,2 hPa 0,0 l/m 6,1 km/h (2 Bft) NW 315 15,7 C 22,1 C
03.07.2012 12:31 22,3 C 67 % 1019,2 hPa 0,0 l/m 7,2 km/h (2 Bft) NW 315 15,9 C 22,3 C
03.07.2012 12:36 22,4 C 66 % 1019,2 hPa 0,0 l/m 1,1 km/h (1 Bft) N 360 15,7 C 22,4 C
03.07.2012 12:41 22,4 C 65 % 1019,2 hPa 0,0 l/m 7,6 km/h (2 Bft) N-NO 22 15,5 C 22,4 C
03.07.2012 12:46 22,3 C 65 % 1019,2 hPa 0,0 l/m 6,1 km/h (2 Bft) NW 315 15,4 C 22,3 C
03.07.2012 12:51 22,4 C 65 % 1019,0 hPa 0,0 l/m 4,3 km/h (1 Bft) W 270 15,5 C 22,4 C
03.07.2012 12:56 22,4 C 66 % 1018,9 hPa 0,0 l/m 1,8 km/h (1 Bft) NW 315 15,7 C 22,4 C
03.07.2012 13:01 22,6 C 66 % 1019,0 hPa 0,0 l/m 3,6 km/h (1 Bft) N-NW 337 15,9 C 22,6 C
03.07.2012 13:06 22,7 C 65 % 1019,0 hPa 0,0 l/m 2,2 km/h (1 Bft) NW 315 15,8 C 22,7 C
03.07.2012 13:11 22,9 C 65 % 1018,9 hPa 0,0 l/m 1,8 km/h (1 Bft) N-NW 337 16,0 C 22,9 C
03.07.2012 13:16 23,0 C 64 % 1018,9 hPa 0,0 l/m 3,6 km/h (1 Bft) W 270 15,8 C 23,0 C
03.07.2012 13:21 23,1 C 64 % 1018,9 hPa 0,0 l/m 9,7 km/h (2 Bft) W-SW 247 15,9 C 23,1 C
03.07.2012 13:26 23,0 C 64 % 1018,8 hPa 0,0 l/m 4,0 km/h (1 Bft) N-NO 22 15,8 C 23,0 C
03.07.2012 13:31 23,1 C 64 % 1018,7 hPa 0,0 l/m 2,5 km/h (1 Bft) W-SW 247 15,9 C 23,1 C
03.07.2012 13:36 23,1 C 65 % 1018,7 hPa 0,0 l/m 2,5 km/h (1 Bft) NW 315 16,2 C 23,1 C
03.07.2012 13:41 23,3 C 63 % 1018,7 hPa 0,0 l/m 1,8 km/h (1 Bft) W-NW 292 15,9 C 23,3 C
03.07.2012 13:46 23,4 C 63 % 1018,7 hPa 0,0 l/m 2,2 km/h (1 Bft) W-NW 292 15,9 C 23,4 C
03.07.2012 13:51 23,4 C 62 % 1018,7 hPa 0,0 l/m 10,8 km/h (2 Bft) W 270 15,7 C 23,4 C
03.07.2012 13:56 23,3 C 63 % 1018,7 hPa 0,0 l/m 4,3 km/h (1 Bft) SW 225 15,9 C 23,3 C
03.07.2012 14:01 23,2 C 62 % 1018,6 hPa 0,0 l/m 2,5 km/h (1 Bft) N-NO 22 15,5 C 23,2 C
03.07.2012 14:06 23,3 C 63 % 1018,6 hPa 0,0 l/m 4,0 km/h (1 Bft) NW 315 15,9 C 23,3 C
03.07.2012 14:11 23,6 C 62 % 1018,5 hPa 0,0 l/m 5,8 km/h (2 Bft) N 360 15,9 C 23,6 C
03.07.2012 14:16 24,1 C 61 % 1018,5 hPa 0,0 l/m 7,6 km/h (2 Bft) N-NW 337 16,1 C 24,1 C
03.07.2012 14:21 24,3 C 60 % 1018,5 hPa 0,0 l/m 4,3 km/h (1 Bft) SW 225 16,0 C 24,3 C
03.07.2012 14:26 24,2 C 61 % 1018,6 hPa 0,0 l/m 3,2 km/h (1 Bft) N-NO 22 16,2 C 24,2 C
03.07.2012 14:31 23,8 C 60 % 1018,6 hPa 0,0 l/m 2,5 km/h (1 Bft) N 360 15,6 C 23,8 C
03.07.2012 14:36 23,6 C 62 % 1018,5 hPa 0,0 l/m 2,5 km/h (1 Bft) N-NO 22 15,9 C 23,6 C
03.07.2012 14:41 23,4 C 62 % 1018,5 hPa 0,0 l/m 0,0 km/h (0 Bft) W-NW 292 15,7 C 23,4 C
03.07.2012 14:46 23,2 C 62 % 1018,5 hPa 0,0 l/m 2,9 km/h (1 Bft) N-NO 22 15,5 C 23,2 C
03.07.2012 14:51 22,9 C 63 % 1018,5 hPa 0,0 l/m 4,3 km/h (1 Bft) N-NO 22 15,5 C 22,9 C
03.07.2012 14:56 22,6 C 64 % 1018,6 hPa 0,0 l/m 0,0 km/h (0 Bft) N-NW 337 15,4 C 22,6 C
03.07.2012 15:01 22,6 C 65 % 1018,6 hPa 0,0 l/m 1,4 km/h (1 Bft) N-NW 337 15,7 C 22,6 C
03.07.2012 15:06 22,6 C 65 % 1018,5 hPa 0,0 l/m 4,0 km/h (1 Bft) N 360 15,7 C 22,6 C
03.07.2012 15:11 22,6 C 65 % 1018,6 hPa 0,0 l/m 6,1 km/h (2 Bft) N-NO 22 15,7 C 22,6 C
03.07.2012 15:16 22,6 C 65 % 1018,5 hPa 0,0 l/m 1,1 km/h (1 Bft) N-NW 337 15,7 C 22,6 C
03.07.2012 15:21 22,8 C 65 % 1018,5 hPa 0,0 l/m 4,3 km/h (1 Bft) NW 315 15,9 C 22,8 C
03.07.2012 15:26 22,9 C 65 % 1018,4 hPa 0,0 l/m 5,4 km/h (1 Bft) NW 315 16,0 C 22,9 C
03.07.2012 15:31 23,1 C 65 % 1018,4 hPa 0,0 l/m 9,0 km/h (2 Bft) N 360 16,2 C 23,1 C
03.07.2012 15:36 23,2 C 64 % 1018,5 hPa 0,0 l/m 5,0 km/h (1 Bft) N 360 16,0 C 23,2 C
03.07.2012 15:41 23,1 C 65 % 1018,5 hPa 0,0 l/m 10,1 km/h (2 Bft) N 360 16,2 C 23,1 C
03.07.2012 15:46 23,0 C 64 % 1018,4 hPa 0,0 l/m 5,8 km/h (2 Bft) N-NO 22 15,8 C 23,0 C
03.07.2012 15:51 22,9 C 65 % 1018,6 hPa 0,0 l/m 5,0 km/h (1 Bft) N-NW 337 16,0 C 22,9 C
03.07.2012 15:56 22,9 C 65 % 1018,6 hPa 0,0 l/m 5,4 km/h (1 Bft) N-NO 22 16,0 C 22,9 C
03.07.2012 16:01 22,8 C 65 % 1018,5 hPa 0,0 l/m 11,5 km/h (2 Bft) N-NO 22 15,9 C 22,8 C
03.07.2012 16:06 22,7 C 65 % 1018,8 hPa 0,0 l/m 11,2 km/h (2 Bft) N 360 15,8 C 22,7 C
03.07.2012 16:11 22,4 C 66 % 1018,6 hPa 0,0 l/m 8,6 km/h (2 Bft) N 360 15,7 C 22,4 C
03.07.2012 16:16 22,2 C 66 % 1018,5 hPa 0,0 l/m 9,0 km/h (2 Bft) N 360 15,5 C 22,2 C
03.07.2012 16:21 22,1 C 67 % 1018,6 hPa 0,0 l/m 5,0 km/h (1 Bft) N-NO 22 15,7 C 22,1 C
03.07.2012 16:26 22,1 C 67 % 1018,7 hPa 0,0 l/m 8,6 km/h (2 Bft) N-NW 337 15,7 C 22,1 C
03.07.2012 16:31 22,1 C 67 % 1018,7 hPa 0,0 l/m 4,0 km/h (1 Bft) N 360 15,7 C 22,1 C
03.07.2012 16:36 22,1 C 67 % 1018,8 hPa 0,0 l/m 7,6 km/h (2 Bft) NO 45 15,7 C 22,1 C
03.07.2012 16:41 22,1 C 67 % 1018,7 hPa 0,0 l/m 11,2 km/h (2 Bft) N-NO 22 15,7 C 22,1 C
03.07.2012 16:46 21,9 C 68 % 1018,6 hPa 0,0 l/m 0,0 km/h (0 Bft) N-NO 22 15,7 C 21,9 C
03.07.2012 16:51 21,9 C 68 % 1018,8 hPa 0,0 l/m 3,2 km/h (1 Bft) NO 45 15,7 C 21,9 C
03.07.2012 16:56 21,8 C 68 % 1018,5 hPa 0,0 l/m 4,0 km/h (1 Bft) NO 45 15,6 C 21,8 C
03.07.2012 17:01 21,9 C 69 % 1018,2 hPa 0,0 l/m 6,1 km/h (2 Bft) NO 45 15,9 C 21,9 C
03.07.2012 17:06 21,9 C 68 % 1018,3 hPa 0,0 l/m 3,6 km/h (1 Bft) N 360 15,7 C 21,9 C
03.07.2012 17:11 21,9 C 68 % 1018,3 hPa 0,0 l/m 6,5 km/h (2 Bft) N-NO 22 15,7 C 21,9 C
03.07.2012 17:16 21,9 C 68 % 1018,3 hPa 0,0 l/m 1,4 km/h (1 Bft) N 360 15,7 C 21,9 C
03.07.2012 17:21 22,1 C 68 % 1018,3 hPa 0,0 l/m 9,7 km/h (2 Bft) W-NW 292 15,9 C 22,1 C
03.07.2012 17:26 22,2 C 68 % 1018,3 hPa 0,0 l/m 6,1 km/h (2 Bft) N-NW 337 16,0 C 22,2 C
03.07.2012 17:31 22,1 C 68 % 1018,4 hPa 0,0 l/m 3,2 km/h (1 Bft) N-NO 22 15,9 C 22,1 C
03.07.2012 17:36 22,1 C 68 % 1018,3 hPa 0,0 l/m 4,0 km/h (1 Bft) NW 315 15,9 C 22,1 C
03.07.2012 17:41 21,9 C 68 % 1018,3 hPa 0,0 l/m 2,5 km/h (1 Bft) NO 45 15,7 C 21,9 C
03.07.2012 17:46 21,8 C 69 % 1018,3 hPa 0,0 l/m 1,4 km/h (1 Bft) W-NW 292 15,9 C 21,8 C
03.07.2012 17:51 21,8 C 69 % 1018,2 hPa 0,0 l/m 2,9 km/h (1 Bft) N 360 15,9 C 21,8 C
03.07.2012 17:56 21,8 C 69 % 1018,3 hPa 0,0 l/m 4,0 km/h (1 Bft) NO 45 15,9 C 21,8 C
03.07.2012 18:01 21,6 C 69 % 1018,3 hPa 0,0 l/m 3,2 km/h (1 Bft) N-NO 22 15,7 C 21,6 C
03.07.2012 18:06 21,6 C 69 % 1018,4 hPa 0,0 l/m 3,2 km/h (1 Bft) N 360 15,7 C 21,6 C
03.07.2012 18:11 21,6 C 70 % 1018,2 hPa 0,0 l/m 5,0 km/h (1 Bft) NW 315 15,9 C 21,6 C
03.07.2012 18:16 21,6 C 70 % 1018,2 hPa 0,0 l/m 4,7 km/h (1 Bft) N-NO 22 15,9 C 21,6 C
03.07.2012 18:21 21,5 C 69 % 1018,2 hPa 0,0 l/m 3,2 km/h (1 Bft) N 360 15,6 C 21,5 C
03.07.2012 18:26 21,4 C 70 % 1018,3 hPa 0,0 l/m 4,3 km/h (1 Bft) N 360 15,7 C 21,4 C
03.07.2012 18:31 21,3 C 71 % 1018,2 hPa 0,0 l/m 2,9 km/h (1 Bft) N-NO 22 15,8 C 21,3 C
03.07.2012 18:36 21,3 C 71 % 1018,2 hPa 0,0 l/m 7,2 km/h (2 Bft) N 360 15,8 C 21,3 C
03.07.2012 18:41 21,3 C 71 % 1018,2 hPa 0,0 l/m 4,7 km/h (1 Bft) N 360 15,8 C 21,3 C
03.07.2012 18:46 21,2 C 71 % 1018,2 hPa 0,0 l/m 4,3 km/h (1 Bft) N 360 15,7 C 21,2 C
03.07.2012 18:51 21,2 C 71 % 1018,3 hPa 0,0 l/m 3,6 km/h (1 Bft) N-NO 22 15,7 C 21,2 C
03.07.2012 18:56 21,2 C 71 % 1018,1 hPa 0,0 l/m 2,5 km/h (1 Bft) N 360 15,7 C 21,2 C
03.07.2012 19:01 21,2 C 71 % 1018,3 hPa 0,0 l/m 4,7 km/h (1 Bft) NW 315 15,7 C 21,2 C
03.07.2012 19:06 21,2 C 71 % 1018,2 hPa 0,0 l/m 4,7 km/h (1 Bft) N-NO 22 15,7 C 21,2 C
03.07.2012 19:11 21,1 C 71 % 1018,2 hPa 0,0 l/m 4,7 km/h (1 Bft) NW 315 15,6 C 21,1 C
03.07.2012 19:16 21,1 C 72 % 1018,3 hPa 0,0 l/m 2,2 km/h (1 Bft) N 360 15,8 C 21,1 C
03.07.2012 19:21 21,1 C 71 % 1018,2 hPa 0,0 l/m 5,8 km/h (2 Bft) N 360 15,6 C 21,1 C
03.07.2012 19:26 21,1 C 71 % 1018,2 hPa 0,0 l/m 0,0 km/h (0 Bft) N 360 15,6 C 21,1 C
03.07.2012 19:31 20,9 C 72 % 1018,3 hPa 0,0 l/m 1,4 km/h (1 Bft) N-NO 22 15,7 C 20,9 C
03.07.2012 19:36 20,9 C 72 % 1018,3 hPa 0,0 l/m 2,5 km/h (1 Bft) N-NW 337 15,7 C 20,9 C
03.07.2012 19:41 20,9 C 72 % 1018,3 hPa 0,0 l/m 1,1 km/h (1 Bft) N-NW 337 15,7 C 20,9 C
03.07.2012 19:46 20,9 C 73 % 1018,1 hPa 0,0 l/m 0,0 km/h (0 Bft) NW 315 15,9 C 20,9 C
03.07.2012 19:51 20,9 C 73 % 1018,2 hPa 0,0 l/m 1,4 km/h (1 Bft) N 360 15,9 C 20,9 C
03.07.2012 19:56 20,8 C 74 % 1018,2 hPa 0,0 l/m 2,5 km/h (1 Bft) N-NW 337 16,0 C 20,8 C
03.07.2012 20:01 20,8 C 74 % 1018,2 hPa 0,0 l/m 5,0 km/h (1 Bft) NW 315 16,0 C 20,8 C
03.07.2012 20:06 20,8 C 74 % 1018,1 hPa 0,0 l/m 2,5 km/h (1 Bft) NW 315 16,0 C 20,8 C
03.07.2012 20:11 20,8 C 74 % 1018,1 hPa 0,0 l/m 4,7 km/h (1 Bft) NW 315 16,0 C 20,8 C
03.07.2012 20:16 20,8 C 74 % 1018,0 hPa 0,0 l/m 0,0 km/h (0 Bft) NW 315 16,0 C 20,8 C
03.07.2012 20:21 20,8 C 74 % 1017,9 hPa 0,0 l/m 1,8 km/h (1 Bft) N-NW 337 16,0 C 20,8 C
03.07.2012 20:26 20,8 C 75 % 1017,9 hPa 0,0 l/m 0,0 km/h (0 Bft) N-NO 22 16,2 C 20,8 C
03.07.2012 20:31 20,7 C 75 % 1017,9 hPa 0,0 l/m 2,5 km/h (1 Bft) N-NW 337 16,1 C 20,7 C
03.07.2012 20:36 20,6 C 75 % 1017,9 hPa 0,0 l/m 0,0 km/h (0 Bft) N 360 16,0 C 20,6 C
03.07.2012 20:41 20,6 C 75 % 1017,8 hPa 0,0 l/m 0,0 km/h (0 Bft) N-NW 337 16,0 C 20,6 C
03.07.2012 20:46 20,6 C 75 % 1017,8 hPa 0,0 l/m 1,4 km/h (1 Bft) N-NO 22 16,0 C 20,6 C
03.07.2012 20:51 20,4 C 76 % 1017,8 hPa 0,0 l/m 2,2 km/h (1 Bft) NO 45 16,0 C 20,4 C
03.07.2012 20:56 20,3 C 76 % 1017,8 hPa 0,0 l/m 3,6 km/h (1 Bft) NO 45 15,9 C 20,3 C
03.07.2012 21:01 20,2 C 76 % 1017,8 hPa 0,0 l/m 1,4 km/h (1 Bft) N-NO 22 15,8 C 20,2 C
03.07.2012 21:06 20,1 C 76 % 1017,8 hPa 0,0 l/m 4,0 km/h (1 Bft) N-NW 337 15,7 C 20,1 C
03.07.2012 21:11 20,1 C 76 % 1017,8 hPa 0,0 l/m 0,0 km/h (0 Bft) N-NW 337 15,7 C 20,1 C
03.07.2012 21:16 20,1 C 76 % 1017,8 hPa 0,0 l/m 1,4 km/h (1 Bft) W-NW 292 15,7 C 20,1 C
03.07.2012 21:21 20,1 C 76 % 1017,7 hPa 0,0 l/m 2,2 km/h (1 Bft) N-NW 337 15,7 C 20,1 C
03.07.2012 21:26 20,1 C 76 % 1017,8 hPa 0,0 l/m 0,0 km/h (0 Bft) NW 315 15,7 C 20,1 C
03.07.2012 21:31 19,9 C 76 % 1017,8 hPa 0,0 l/m 0,0 km/h (0 Bft) W-NW 292 15,5 C 19,9 C
03.07.2012 21:36 19,9 C 76 % 1017,8 hPa 0,0 l/m 1,8 km/h (1 Bft) W-NW 292 15,5 C 19,9 C
03.07.2012 21:41 19,9 C 76 % 1017,8 hPa 0,0 l/m 2,5 km/h (1 Bft) NW 315 15,5 C 19,9 C
03.07.2012 21:46 19,9 C 76 % 1017,8 hPa 0,0 l/m 2,2 km/h (1 Bft) N 360 15,5 C 19,9 C
03.07.2012 21:51 19,8 C 77 % 1017,9 hPa 0,0 l/m 2,9 km/h (1 Bft) N 360 15,6 C 19,8 C
03.07.2012 21:56 19,6 C 77 % 1017,9 hPa 0,0 l/m 1,8 km/h (1 Bft) N-NO 22 15,5 C 19,6 C
03.07.2012 22:01 19,6 C 77 % 1017,9 hPa 0,0 l/m 4,7 km/h (1 Bft) N-NW 337 15,5 C 19,6 C
03.07.2012 22:06 19,6 C 77 % 1018,1 hPa 0,0 l/m 2,2 km/h (1 Bft) NO 45 15,5 C 19,6 C
03.07.2012 22:11 19,5 C 77 % 1018,0 hPa 0,0 l/m 2,2 km/h (1 Bft) N 360 15,4 C 19,5 C
03.07.2012 22:16 19,4 C 78 % 1018,1 hPa 0,0 l/m 1,1 km/h (1 Bft) N 360 15,5 C 19,4 C
03.07.2012 22:21 19,4 C 78 % 1018,2 hPa 0,0 l/m 0,0 km/h (0 Bft) N-NO 22 15,5 C 19,4 C
03.07.2012 22:26 19,4 C 78 % 1018,0 hPa 0,0 l/m 0,0 km/h (0 Bft) N 360 15,5 C 19,4 C
03.07.2012 22:31 19,4 C 78 % 1018,2 hPa 0,0 l/m 0,0 km/h (0 Bft) N 360 15,5 C 19,4 C
03.07.2012 22:36 19,5 C 78 % 1018,3 hPa 0,0 l/m 0,0 km/h (0 Bft) N 360 15,6 C 19,5 C
03.07.2012 22:41 19,5 C 77 % 1018,2 hPa 0,0 l/m 0,0 km/h (0 Bft) N-NW 337 15,4 C 19,5 C
03.07.2012 22:46 19,5 C 77 % 1018,0 hPa 0,0 l/m 1,4 km/h (1 Bft) N-NW 337 15,4 C 19,5 C
03.07.2012 22:51 19,5 C 78 % 1018,1 hPa 0,0 l/m 1,1 km/h (1 Bft) N-NW 337 15,6 C 19,5 C
03.07.2012 22:56 19,4 C 78 % 1018,2 hPa 0,0 l/m 0,0 km/h (0 Bft) N-NW 337 15,5 C 19,4 C
03.07.2012 23:01 19,3 C 78 % 1018,2 hPa 0,0 l/m 0,0 km/h (0 Bft) N 360 15,4 C 19,3 C
03.07.2012 23:06 19,2 C 78 % 1018,1 hPa 0,0 l/m 2,5 km/h (1 Bft) NW 315 15,3 C 19,2 C
03.07.2012 23:11 19,1 C 78 % 1018,1 hPa 0,0 l/m 1,1 km/h (1 Bft) NW 315 15,2 C 19,1 C
03.07.2012 23:16 19,1 C 79 % 1018,0 hPa 0,0 l/m 0,0 km/h (0 Bft) NW 315 15,4 C 19,1 C
03.07.2012 23:21 19,0 C 79 % 1018,1 hPa 0,0 l/m 0,0 km/h (0 Bft) NW 315 15,3 C 19,0 C
03.07.2012 23:26 18,9 C 79 % 1018,4 hPa 0,0 l/m 0,0 km/h (0 Bft) NW 315 15,2 C 18,9 C
03.07.2012 23:31 18,9 C 79 % 1018,3 hPa 0,0 l/m 0,0 km/h (0 Bft) W-NW 292 15,2 C 18,9 C
03.07.2012 23:36 18,9 C 79 % 1018,4 hPa 0,0 l/m 0,0 km/h (0 Bft) W-NW 292 15,2 C 18,9 C
03.07.2012 23:41 18,8 C 79 % 1018,3 hPa 0,0 l/m 0,0 km/h (0 Bft) W 270 15,1 C 18,8 C
03.07.2012 23:46 18,8 C 79 % 1018,2 hPa 0,0 l/m 0,0 km/h (0 Bft) W 270 15,1 C 18,8 C
03.07.2012 23:51 18,8 C 80 % 1018,2 hPa 0,0 l/m 0,0 km/h (0 Bft) W 270 15,3 C 18,8 C
03.07.2012 23:56 18,8 C 80 % 1018,2 hPa 0,0 l/m 1,4 km/h (1 Bft) N-NO 22 15,3 C 18,8 C
_ Min-Zeit 02:06 14:21 21:21 - 00:01 - - 07:01 02:06
Minimum _ 15,5 C 60 % 1017,7 hPa - 0,0 km/h (0 Bft) - - 12,1 C 15,5 C
_ Max-Zeit 14:21 01:06 00:06 00:01 16:01 - - 20:26 14:21
Maximum _ 24,3 C 84 % 1020,8 hPa 0,0 l/m 11,5 km/h
N-NO (2 Bft)
- - 16,2 C 24,3 C
Durchschnitt _ 19,0 C 75 % 1018,9 hPa #0,0 l/m 2,8 km/h (1 Bft) N-NO - 14,3 C 19,0 C
(c) by David Heller